{"data":{"norad_id":60992,"epoch":"2026-05-24T19:52:49.166112Z","epoch_age_seconds":89058,"freshness":"FRESH","line1":"1 60992U 24158C   26144.82834683  .00001477  00000+0  17047-4 0  9996","line2":"2 60992  53.1588 265.8886 0001138  64.6749 295.4387 15.69715709 99556","mean_motion":15.69715709,"eccentricity":0.0001138,"inclination_deg":53.1588,"raan_deg":265.8886,"arg_perigee_deg":64.6749,"mean_anomaly_deg":295.4387,"bstar":1.7047e-5,"rev_number":9955,"period_min":91.736356573597,"perigee_km":358.94364646093,"apogee_km":360.47718053224,"semimajor_km":6737.8474134966,"source":"CELESTRAK","updated_at":"2026-05-25T13:38:19.322338Z"}}